Location: Unspecified
(51.3762°N, 0.0000°E)
Time: 22:45:45
(UTC+00:00)

ISS - Visible Passes

Search period start: 21 May 2019 00:00
Search period end: 31 May 2019 00:00
Orbit: 407 x 410 km, 51.6° (Epoch: 22 May)

Date Brightness Start Highest point End Pass type
(mag) Time Alt. Az. Time Alt. Az. Time Alt. Az.
21 May -1.8 01:36:08 10° W 01:37:05 16° W 01:37:05 16° W visible
21 May -3.9 21:31:59 10° WSW 21:35:17 73° SSE 21:38:35 10° E visible
21 May -3.9 23:08:34 10° W 23:11:54 86° N 23:14:15 18° E visible
22 May -2.5 00:45:11 10° W 00:46:56 26° W 00:46:56 26° W visible
22 May -3.7 20:41:12 10° WSW 20:44:26 56° SSE 20:47:42 10° E visible
22 May -3.8 22:17:40 10° W 22:20:59 83° N 22:24:18 10° E visible
22 May -3.8 23:54:16 10° W 23:57:19 59° SW 23:57:19 59° SW visible
23 May -3.8 21:26:45 10° W 21:30:04 88° NNW 21:33:24 10° E visible
23 May -4.0 23:03:21 10° W 23:06:41 78° SSW 23:07:50 37° ESE visible
24 May -1.3 00:40:09 10° W 00:40:33 12° W 00:40:33 12° W visible
24 May -3.9 22:12:27 10° W 22:15:46 89° N 22:18:26 15° E visible
24 May -2.6 23:49:06 10° W 23:51:09 29° WSW 23:51:09 29° WSW visible
25 May -3.8 21:21:31 10° W 21:24:50 84° N 21:28:09 10° E visible
25 May -3.7 22:58:07 10° W 23:01:21 52° SSW 23:01:47 48° S visible
26 May -3.9 22:07:10 10° W 22:10:28 70° SSW 22:12:26 22° ESE visible
26 May -1.7 23:44:04 10° W 23:45:09 16° WSW 23:45:09 16° WSW visible
27 May -3.8 21:16:14 10° W 21:19:32 85° SSW 21:22:51 10° ESE visible
27 May -2.9 22:52:55 10° W 22:55:50 31° SSW 22:55:50 31° SSW visible
28 May -3.4 22:01:52 10° W 22:05:03 44° SSW 22:06:32 25° SSE visible
29 May -3.7 21:10:52 10° W 21:14:09 61° SSW 21:17:15 11° ESE visible
29 May -1.9 22:47:59 10° W 22:49:58 17° SW 22:49:58 17° SW visible
30 May -2.5 21:56:40 10° W 21:59:29 26° SSW 22:00:43 20° S visible
